Savoy, IL

2:53 AM CST on February 24, 2017 (GMT -0600)
Univ Of Illinois-Willard

Weather History for KCMI - March, 2012

Change the Weather History Date:

Monday, March 26, 2012

  Actual Average Record
Temperature  
Mean Temperature 49 °F 44 °F  
Max Temperature 54 °F 56 °F 79 °F (2007)
Min Temperature 43 °F 33 °F 12 °F (2001)
Degree Days  
Heating Degree Days 16 21  
Month to date heating degree days 295 658  
Since 1 July heating degree days 4095 5160  
Cooling Degree Days 0 0  
Month to date cooling degree days 38 0  
Year to date cooling degree days 38 0  
Moisture  
Dew Point 38 °F    
Average Humidity 70    
Maximum Humidity 89    
Minimum Humidity 50    
Precipitation  
Precipitation 0.00 in 0.10 in 2.58 in (2004)
Month to date precipitation 1.39 2.21  
Year to date precipitation 5.23 6.28  
Sea Level Pressure  
Sea Level Pressure 30.23 in    
Wind  
Wind Speed 15 mph (ENE)    
Max Wind Speed 23 mph    
Max Gust Speed 29 mph    
Visibility 10 miles    
Events      
T = Trace of Precipitation, MM = Missing Value Source: NWS Daily Summary

Daily Weather History Graph

Daily Weather History Graph

Search for Another Location

Airport or City:

Trip Planner

Search our weather history database for the weather conditions in past years. The results will help you decide how hot, cold, wet, or windy it might be!

Date:

Astronomy

Mar. 26, 2012 Rise Set
Actual Time 6:45 AM CDT 7:11 PM CDT
Civil Twilight 6:18 AM CDT 7:39 PM CDT
Nautical Twilight 5:46 AM CDT 8:11 PM CDT
Astronomical Twilight 5:14 AM CDT 8:43 PM CDT
Moon 8:35 AM CDT (3/26) 11:22 PM CDT (3/26)
Length of Visible Light 13h 20m
Length of Day
12h 25m
Waxing Crescent, 15% of the Moon is Illuminated
Mar 26
Waxing Crescent
Mar 30
First Quarter
Apr 6
Full
Apr 13
Last Quarter
Apr 21
New

Hourly Weather History & Observations

Time (CDT) Temp. Windchill Dew Point Humidity Pressure Visibility Wind Dir Wind Speed Gust Speed Precip Events Conditions
12:53 AM 53.1 °F - 50.0 °F 89% 30.10 in 7.0 mi NE 12.7 mph - N/A   Clear
1:53 AM 52.0 °F - 46.9 °F 83% 30.12 in 10.0 mi NE 11.5 mph - N/A   Clear
2:53 AM 51.1 °F - 44.1 °F 77% 30.12 in 10.0 mi NE 12.7 mph 20.7 mph N/A   Clear
3:53 AM 50.0 °F - 41.0 °F 71% 30.13 in 10.0 mi NE 17.3 mph - N/A   Clear
4:53 AM 48.9 °F - 41.0 °F 74% 30.15 in 10.0 mi NE 19.6 mph 25.3 mph N/A   Overcast
5:53 AM 48.0 °F - 39.9 °F 74% 30.19 in 10.0 mi NE 16.1 mph 25.3 mph N/A   Overcast
6:53 AM 46.9 °F - 39.0 °F 74% 30.21 in 10.0 mi NE 16.1 mph - N/A   Overcast
7:53 AM 46.0 °F 39.3 °F 37.9 °F 73% 30.26 in 10.0 mi NE 16.1 mph - N/A   Mostly Cloudy
8:53 AM 46.0 °F 39.3 °F 37.9 °F 73% 30.28 in 10.0 mi NE 16.1 mph 23.0 mph N/A   Overcast
9:53 AM 45.0 °F 37.1 °F 37.9 °F 76% 30.28 in 10.0 mi ENE 19.6 mph 25.3 mph N/A   Overcast
10:53 AM 46.9 °F - 36.0 °F 66% 30.28 in 10.0 mi NE 20.7 mph 24.2 mph N/A   Overcast
11:53 AM 48.0 °F - 36.0 °F 63% 30.29 in 10.0 mi NE 18.4 mph 24.2 mph N/A   Overcast
12:53 PM 46.9 °F - 35.1 °F 63% 30.29 in 10.0 mi ENE 17.3 mph - N/A   Overcast
1:53 PM 48.0 °F - 35.1 °F 61% 30.29 in 10.0 mi ENE 13.8 mph - N/A   Overcast
2:53 PM 50.0 °F - 34.0 °F 54% 30.26 in 10.0 mi ENE 15.0 mph - N/A   Overcast
3:53 PM 52.0 °F - 36.0 °F 54% 30.25 in 10.0 mi ENE 13.8 mph - N/A   Overcast
4:53 PM 53.1 °F - 36.0 °F 52% 30.23 in 10.0 mi ENE 17.3 mph - N/A   Overcast
5:53 PM 53.1 °F - 36.0 °F 52% 30.24 in 10.0 mi East 10.4 mph - N/A   Overcast
6:53 PM 52.0 °F - 37.9 °F 59% 30.23 in 10.0 mi East 9.2 mph - N/A   Mostly Cloudy
7:53 PM 51.1 °F - 34.0 °F 52% 30.23 in 10.0 mi East 12.7 mph - N/A   Mostly Cloudy
8:53 PM 50.0 °F - 35.1 °F 57% 30.24 in 10.0 mi East 12.7 mph - N/A   Overcast
9:53 PM 46.9 °F - 35.1 °F 63% 30.25 in 10.0 mi East 12.7 mph - N/A   Clear
10:53 PM 46.0 °F 40.2 °F 35.1 °F 66% 30.25 in 10.0 mi East 12.7 mph - N/A   Clear
11:53 PM 44.1 °F 37.4 °F 35.1 °F 71% 30.24 in 10.0 mi East 13.8 mph - N/A   Clear